TimeCST,TemperatureF,Dew PointF,Humidity,Sea Level PressureIn,VisibilityMPH,Wind Direction,Wind SpeedMPH,Gust SpeedMPH,PrecipitationIn,Events,Conditions,WindDirDegrees,DateUTC
12:15 AM,-0.4,-5.8,78,29.90,4.0,NW,23.0,28.8,N/A,,Haze,310,2013-02-19 06:15:00
12:35 AM,-0.4,-5.8,78,29.91,4.0,NW,23.0,33.4,N/A,,Haze,310,2013-02-19 06:35:00
1:15 AM,1.4,-5.8,72,29.92,4.0,NW,21.9,29.9,N/A,,Haze,320,2013-02-19 07:15:00
1:35 AM,1.4,-5.8,72,29.93,3.0,NW,20.7,28.8,N/A,,Haze,310,2013-02-19 07:35:00
1:55 AM,1.4,-5.8,72,29.93,4.0,NW,20.7,28.8,N/A,,Haze,310,2013-02-19 07:55:00
2:15 AM,-0.4,-5.8,78,29.94,4.0,NW,24.2,29.9,N/A,,Haze,320,2013-02-19 08:15:00
2:35 AM,-0.4,-5.8,78,29.94,4.0,NW,21.9,-,N/A,,Haze,320,2013-02-19 08:35:00
2:55 AM,-0.4,-5.8,78,29.95,7.0,NW,19.6,25.3,N/A,,Overcast,310,2013-02-19 08:55:00
3:35 AM,-2.2,-7.6,78,29.97,7.0,NW,21.9,27.6,N/A,,Clear,310,2013-02-19 09:35:00
3:55 AM,-2.2,-7.6,78,29.97,10.0,NW,20.7,-,N/A,,Clear,320,2013-02-19 09:55:00
4:15 AM,-4.0,-7.6,85,29.98,10.0,NW,18.4,25.3,N/A,,Clear,320,2013-02-19 10:15:00
4:35 AM,-4.0,-9.4,78,29.99,10.0,NW,15.0,23.0,N/A,,Clear,310,2013-02-19 10:35:00
4:55 AM,-4.0,-9.4,78,29.99,10.0,NW,19.6,24.2,N/A,,Clear,320,2013-02-19 10:55:00
5:15 AM,-4.0,-9.4,78,30.00,10.0,NW,17.3,-,N/A,,Clear,310,2013-02-19 11:15:00
5:35 AM,-4.0,-9.4,78,30.00,10.0,NW,20.7,26.5,N/A,,Clear,320,2013-02-19 11:35:00
5:55 AM,-4.0,-9.4,78,30.02,10.0,NW,20.7,27.6,N/A,,Clear,310,2013-02-19 11:55:00
6:55 AM,-7.6,-13.0,77,30.05,10.0,NW,21.9,26.5,N/A,,Clear,310,2013-02-19 12:55:00
7:15 AM,-7.6,-14.8,71,30.07,7.0,NW,20.7,26.5,N/A,,Clear,310,2013-02-19 13:15:00
7:35 AM,-7.6,-14.8,71,30.08,7.0,NW,19.6,24.2,N/A,,Clear,310,2013-02-19 13:35:00
7:55 AM,-7.6,-14.8,71,30.09,10.0,NW,17.3,26.5,N/A,,Clear,310,2013-02-19 13:55:00
8:15 AM,-7.6,-14.8,71,30.10,7.0,NW,18.4,-,N/A,,Clear,310,2013-02-19 14:15:00
8:55 AM,-5.8,-13.0,71,30.12,10.0,NW,17.3,23.0,N/A,,Clear,310,2013-02-19 14:55:00
9:15 AM,-5.8,-13.0,71,30.12,7.0,NW,20.7,25.3,N/A,,Clear,310,2013-02-19 15:15:00
9:35 AM,-5.8,-13.0,71,30.12,7.0,NW,18.4,26.5,N/A,,Clear,310,2013-02-19 15:35:00
9:55 AM,-5.8,-13.0,71,30.13,10.0,NW,21.9,25.3,N/A,,Clear,310,2013-02-19 15:55:00
10:15 AM,-5.8,-13.0,71,30.14,7.0,NW,19.6,26.5,N/A,,Clear,310,2013-02-19 16:15:00
10:35 AM,-5.8,-13.0,71,30.14,7.0,NW,19.6,26.5,N/A,,Clear,310,2013-02-19 16:35:00
10:55 AM,-5.8,-13.0,71,30.15,7.0,NW,19.6,27.6,N/A,,Clear,320,2013-02-19 16:55:00
11:15 AM,-5.8,-13.0,71,30.16,5.0,NW,21.9,26.5,N/A,,Haze,310,2013-02-19 17:15:00
11:35 AM,-4.0,-13.0,65,30.17,7.0,NW,19.6,27.6,N/A,,Clear,310,2013-02-19 17:35:00
11:55 AM,-4.0,-11.2,71,30.17,7.0,NW,21.9,25.3,N/A,,Clear,310,2013-02-19 17:55:00
12:15 PM,-4.0,-13.0,65,30.17,7.0,NW,16.1,26.5,N/A,,Clear,310,2013-02-19 18:15:00
12:35 PM,-2.2,-11.2,66,30.17,7.0,WNW,20.7,27.6,N/A,,Clear,300,2013-02-19 18:35:00
12:55 PM,-0.4,-9.4,66,30.17,7.0,NW,16.1,23.0,N/A,,Clear,310,2013-02-19 18:55:00
1:15 PM,-0.4,-9.4,66,30.18,10.0,WNW,20.7,24.2,N/A,,Clear,300,2013-02-19 19:15:00
1:35 PM,-0.4,-9.4,66,30.18,7.0,WNW,20.7,-,N/A,,Clear,300,2013-02-19 19:35:00
1:55 PM,-0.4,-9.4,66,30.19,10.0,NW,19.6,25.3,N/A,,Clear,310,2013-02-19 19:55:00
2:15 PM,1.4,-7.6,66,30.19,7.0,NW,16.1,21.9,N/A,,Clear,310,2013-02-19 20:15:00
2:35 PM,-0.4,-9.4,66,30.20,10.0,NW,16.1,24.2,N/A,,Clear,310,2013-02-19 20:35:00
2:55 PM,1.4,-9.4,61,30.21,10.0,NNW,18.4,24.2,N/A,,Clear,330,2013-02-19 20:55:00
3:15 PM,1.4,-7.6,66,30.21,10.0,NW,17.3,-,N/A,,Clear,310,2013-02-19 21:15:00
3:35 PM,1.4,-9.4,61,30.22,10.0,NW,16.1,23.0,N/A,,Clear,320,2013-02-19 21:35:00
3:55 PM,1.4,-9.4,61,30.23,10.0,NW,19.6,25.3,N/A,,Clear,320,2013-02-19 21:55:00
4:15 PM,-0.4,-9.4,66,30.24,10.0,NW,17.3,-,N/A,,Clear,320,2013-02-19 22:15:00
4:35 PM,1.4,-9.4,61,30.25,10.0,NW,18.4,24.2,N/A,,Clear,310,2013-02-19 22:35:00
4:55 PM,-0.4,-9.4,66,30.26,10.0,NW,17.3,20.7,N/A,,Clear,310,2013-02-19 22:55:00
5:15 PM,-0.4,-9.4,66,30.26,10.0,NW,15.0,21.9,N/A,,Clear,310,2013-02-19 23:15:00
6:35 PM,-4.0,-11.2,71,30.29,10.0,NW,13.8,-,N/A,,Clear,310,2013-02-20 00:35:00
6:55 PM,-4.0,-13.0,65,30.29,10.0,NW,10.4,-,N/A,,Clear,310,2013-02-20 00:55:00
7:15 PM,-4.0,-13.0,65,30.30,10.0,NW,12.7,-,N/A,,Clear,320,2013-02-20 01:15:00
7:35 PM,-5.8,-13.0,71,30.30,10.0,NNW,12.7,-,N/A,,Clear,330,2013-02-20 01:35:00
7:55 PM,-5.8,-13.0,71,30.31,10.0,NW,11.5,-,N/A,,Clear,320,2013-02-20 01:55:00
8:15 PM,-5.8,-13.0,71,30.31,10.0,NW,12.7,-,N/A,,Clear,320,2013-02-20 02:15:00
8:35 PM,-5.8,-13.0,71,30.33,10.0,NW,9.2,-,N/A,,Clear,320,2013-02-20 02:35:00
9:15 PM,-7.6,-13.0,77,30.33,10.0,North,9.2,-,N/A,,Clear,350,2013-02-20 03:15:00
9:35 PM,-5.8,-14.8,65,30.34,10.0,WNW,6.9,-,N/A,,Clear,300,2013-02-20 03:35:00
9:55 PM,-7.6,-14.8,71,30.33,10.0,North,6.9,-,N/A,,Clear,350,2013-02-20 03:55:00
10:15 PM,-7.6,-13.0,77,30.35,10.0,WNW,5.8,-,N/A,,Clear,290,2013-02-20 04:15:00
10:35 PM,-7.6,-14.8,71,30.34,10.0,NW,4.6,-,N/A,,Clear,320,2013-02-20 04:35:00
10:55 PM,-9.4,-14.8,77,30.35,10.0,NW,6.9,-,N/A,,Clear,320,2013-02-20 04:55:00
11:15 PM,-7.6,-14.8,71,30.35,10.0,NW,6.9,-,N/A,,Clear,320,2013-02-20 05:15:00
11:35 PM,-7.6,-14.8,71,30.36,10.0,NW,8.1,-,N/A,,Clear,310,2013-02-20 05:35:00
11:55 PM,-13.0,-16.6,84,30.37,10.0,WNW,4.6,-,N/A,,Clear,290,2013-02-20 05:55:00